Find Starlink 32642

NORAD ID: 62211 Int'l Des: 2024-229 Owner: SPXS Country: US Constellation: starlink operational
LEOCIRCULAR

リアルタイム位置

3D地球を読み込み中...

Starlink 32642について

説明を読み込み中...

次回通過

Passes for default location (London). Set your location on the main map for personalized predictions.

高度履歴

Loading altitude history...

軌道要素

1 62211U 24229V 26121.84652443 .00017645 00000-0 64885-3 0 9996
2 62211 42.9990 330.2882 0001029 243.5597 116.5149 15.27596830 78693
Epoch: May 1, 2026 • Age: 7 hours

現在のステータス

高度 486.5 km
速度 7.63 km/s
衛星直下点 41.84°N, 137.44°E
打ち上げ日 Dec 4, 2024
運用期間 1.4 years
タイプ internet

技術仕様

分類 Payload
質量 730.00 kg
乾燥質量 700.00 kg
総質量 730.00 kg
長さ 0.30 m
直径 4.10 m
スパン 29.00 m
形状 Box + pan
製造者 SPXS
バスタイプ Starlink V2M
フェーズステータス In Orbit
所有者/国 SPXS/US

Most Searched